THORAD AGENA D DEB, 4687

Orbit data source: Space-Track

THORAD AGENA D DEB, 4687 is space debris in SSO originally from a launch on Wed, 08 Apr 1970 UTC launched from the Air Force Western Test Range (AFWTR). Debris objects in space refer to the collection of defunct objects orbiting the Earth. Examples of debris include non-operational satellites, rocket bodies, and fragments generated from explosions, collisions, or faulty payload assembly.

Loading next visibility...
Identifier
4687, 1970-025BL
Orbit
SSO
Country
Flag of USUS
Related business
Manufacturer
Unknown
Mission
Spacecraft
Bus & Motor
Unknown
Mass
Unknown
Launch date (UTC)
1970-04-08 (56 years ago)
Launch vehicle
Unknown
Launch site
Air Force Western Test Range (AFWTR)
Object type
Payload
Rocket body
Debris
Shape & HBR
Unknown shape, 0.3 m
Radar Cross Section
Medium (>0.1 m² and <1 m²)

Expand to show TLE details & history
Last TLE update: 14 hours ago

TLE from 14 hours ago
0 THORAD AGENA D DEB
1 04687U 70025BL  26237.37358157  .00000089  00000-0  20146-3 0  9991
2 04687  99.5764  19.5907 0028406 113.8992 273.0724 13.51268258773622
Epoch: 2026-08-25T08:57Z
TLE epoch observation values (Epoch: 2026-08-25T08:57:57.447Z)
Latitude
26.28121°
Longitude
-93.29501°
Altitude
1,069.611 km
Speed
7.32 km/s
True Right ascension
00h 59m 20s
True Declination
26° 09' 02"
Sunlit
Object was in full shadow at epoch
Visualization orbit readout
Latitude
Unknown
Longitude
Unknown
Altitude
Unknown
Speed
Unknown
Apparent Right ascension
Unknown
Apparent Declination
Unknown
Sunlit
N/A
Visualization observer readout
Local Sidereal Time
14:16:39
Azimuth
Unknown
Elevation
Unknown
Doppler factor
Unknown
Orbital elements
Apogee altitude
1,086.032 km
Perigee altitude
1,043.747 km
Semi-major axis
7,443.026 km
Eccentricity
0.00284
Inclination
99.5764°
RAAN
19.5907°
Arg. of periapsis
113.8992°
True anomaly
272.7473°
Mean anomaly
273.0724°
Eccentric anomaly
272.90986°
Mean motion
3.38002 °/min
Orbital period
106.51 mins
BSTAR
0.00020146
Loading maneuver chart data...
Computing Atmospheric mass density...

Documentation

Showing up to 5 results
|